Track COSMOS 2502 now! 10-day predictions COSMOS 2502 is classified as:
1 40358U 14086A 25199.92369997 -.00000018 00000-0 40925-4 0 9993 2 40358 67.1520 98.6196 0004800 251.6689 108.3874 13.97762641537373